Time,TemperatureF,DewpointF,PressureIn,WindDirection,WindDirectionDegrees,WindSpeedMPH,WindSpeedGustMPH,Humidity,HourlyPrecipIn,Conditions,Clouds,dailyrainin,SolarRadiationWatts/m^2,SoftwareType,DateUTC
2013-04-21 00:03:00,44.0,23.0,-100.00,NNE,24,3.0,6.0,43,0.00,,,0.00,0.000000,,2013-04-21 04:03:00,
2013-04-21 00:33:00,44.0,25.0,-100.00,NNE,23,3.0,6.0,46,0.00,,,0.00,0.000000,,2013-04-21 04:33:00,
2013-04-21 00:43:00,44.0,25.0,-100.00,NNE,23,3.0,6.0,46,0.00,,,0.00,0.000000,,2013-04-21 04:43:00,
2013-04-21 00:53:00,44.0,25.0,-100.00,NNE,23,3.0,6.0,46,0.00,,,0.00,0.000000,,2013-04-21 04:53:00,
2013-04-21 01:02:00,44.0,25.0,-100.00,NNE,23,3.0,6.0,46,0.00,,,0.00,0.000000,,2013-04-21 05:02:00,
2013-04-21 01:32:00,45.0,27.0,-100.00,West,276,3.0,9.0,48,0.00,,,0.00,0.000000,,2013-04-21 05:32:00,
2013-04-21 01:43:00,45.0,27.0,-100.00,West,276,3.0,9.0,48,0.00,,,0.00,0.000000,,2013-04-21 05:43:00,
2013-04-21 01:52:00,45.0,27.0,-100.00,West,276,3.0,9.0,48,0.00,,,0.00,0.000000,,2013-04-21 05:52:00,
2013-04-21 02:01:00,45.0,27.0,-100.00,West,276,3.0,9.0,48,0.00,,,0.00,0.000000,,2013-04-21 06:01:00,
2013-04-21 02:32:00,45.0,27.0,-100.00,SE,142,3.0,9.0,49,0.00,,,0.00,0.000000,,2013-04-21 06:32:00,
2013-04-21 02:42:00,45.0,27.0,-100.00,SE,142,3.0,9.0,49,0.00,,,0.00,0.000000,,2013-04-21 06:42:00,
2013-04-21 02:52:00,45.0,27.0,-100.00,SE,142,3.0,9.0,49,0.00,,,0.00,0.000000,,2013-04-21 06:52:00,
2013-04-21 03:02:00,45.0,27.0,-100.00,SE,142,3.0,9.0,49,0.00,,,0.00,0.000000,,2013-04-21 07:02:00,
2013-04-21 03:32:00,45.0,23.0,-100.00,ESE,103,4.0,14.0,41,0.00,,,0.00,0.000000,,2013-04-21 07:32:00,
2013-04-21 03:42:00,45.0,23.0,-100.00,ESE,103,4.0,14.0,41,0.00,,,0.00,0.000000,,2013-04-21 07:42:00,
2013-04-21 03:52:00,45.0,23.0,-100.00,ESE,103,4.0,14.0,41,0.00,,,0.00,0.000000,,2013-04-21 07:52:00,
2013-04-21 04:01:00,45.0,23.0,-100.00,ESE,103,4.0,14.0,41,0.00,,,0.00,0.000000,,2013-04-21 08:01:00,
2013-04-21 04:32:00,45.0,22.0,-100.00,East,89,5.0,12.0,40,0.00,,,0.00,0.000000,,2013-04-21 08:32:00,
2013-04-21 04:42:00,45.0,22.0,-100.00,East,89,5.0,12.0,40,0.00,,,0.00,0.000000,,2013-04-21 08:42:00,
2013-04-21 04:52:00,45.0,22.0,-100.00,East,89,5.0,12.0,40,0.00,,,0.00,0.000000,,2013-04-21 08:52:00,
2013-04-21 05:02:00,45.0,22.0,-100.00,East,89,5.0,12.0,40,0.00,,,0.00,0.000000,,2013-04-21 09:02:00,
2013-04-21 05:33:00,45.0,23.0,-100.00,East,101,5.0,14.0,41,0.00,,,0.00,0.000000,,2013-04-21 09:33:00,
2013-04-21 05:43:00,45.0,23.0,-100.00,East,101,5.0,14.0,41,0.00,,,0.00,0.000000,,2013-04-21 09:43:00,
2013-04-21 05:53:00,45.0,23.0,-100.00,East,101,5.0,14.0,41,0.00,,,0.00,0.000000,,2013-04-21 09:53:00,
2013-04-21 06:03:00,45.0,23.0,-100.00,East,101,5.0,14.0,41,0.00,,,0.00,0.000000,,2013-04-21 10:03:00,
2013-04-21 06:33:00,44.0,23.0,-100.00,East,99,5.0,13.0,43,0.00,,,0.00,0.000000,,2013-04-21 10:33:00,
2013-04-21 06:42:00,44.0,23.0,-100.00,East,99,5.0,13.0,43,0.00,,,0.00,0.000000,,2013-04-21 10:42:00,
2013-04-21 06:52:00,44.0,23.0,-100.00,East,99,5.0,13.0,43,0.00,,,0.00,0.000000,,2013-04-21 10:52:00,
2013-04-21 07:03:00,44.0,23.0,-100.00,East,99,5.0,13.0,43,0.00,,,0.00,0.000000,,2013-04-21 11:03:00,
2013-04-21 07:34:00,44.0,23.0,-100.00,ESE,103,8.0,16.0,43,0.00,,,0.00,1.000000,,2013-04-21 11:34:00,
2013-04-21 07:42:00,44.0,23.0,-100.00,ESE,103,8.0,16.0,43,0.00,,,0.00,1.000000,,2013-04-21 11:42:00,
2013-04-21 07:52:00,44.0,23.0,-100.00,ESE,103,8.0,16.0,43,0.00,,,0.00,1.000000,,2013-04-21 11:52:00,
2013-04-21 08:03:00,44.0,23.0,-100.00,ESE,103,8.0,16.0,43,0.00,,,0.00,1.000000,,2013-04-21 12:03:00,
2013-04-21 08:32:00,44.0,21.0,-100.00,East,95,7.0,21.0,39,0.00,,,0.00,38.000000,,2013-04-21 12:32:00,
2013-04-21 08:42:00,44.0,21.0,-100.00,East,95,7.0,21.0,39,0.00,,,0.00,38.000000,,2013-04-21 12:42:00,
2013-04-21 08:52:00,44.0,21.0,-100.00,East,95,7.0,21.0,39,0.00,,,0.00,38.000000,,2013-04-21 12:52:00,
2013-04-21 09:01:00,44.0,21.0,-100.00,East,95,7.0,21.0,39,0.00,,,0.00,38.000000,,2013-04-21 13:01:00,
2013-04-21 09:32:00,46.0,21.0,-100.00,SE,139,7.0,18.0,36,0.00,,,0.00,288.000000,,2013-04-21 13:32:00,
2013-04-21 09:42:00,46.0,21.0,-100.00,SE,139,7.0,18.0,36,0.00,,,0.00,288.000000,,2013-04-21 13:42:00,
2013-04-21 09:52:00,46.0,21.0,-100.00,SE,139,7.0,18.0,36,0.00,,,0.00,288.000000,,2013-04-21 13:52:00,
2013-04-21 10:02:00,46.0,21.0,-100.00,SE,139,7.0,18.0,36,0.00,,,0.00,288.000000,,2013-04-21 14:02:00,
2013-04-21 10:32:00,47.0,22.0,-100.00,ESE,117,7.0,19.0,37,0.00,,,0.00,471.000000,,2013-04-21 14:32:00,
2013-04-21 10:42:00,47.0,22.0,-100.00,ESE,117,7.0,19.0,37,0.00,,,0.00,471.000000,,2013-04-21 14:42:00,
2013-04-21 10:52:00,47.0,22.0,-100.00,ESE,117,7.0,19.0,37,0.00,,,0.00,471.000000,,2013-04-21 14:52:00,
2013-04-21 11:02:00,47.0,22.0,-100.00,ESE,117,7.0,19.0,37,0.00,,,0.00,471.000000,,2013-04-21 15:02:00,
2013-04-21 11:33:00,50.0,25.0,-100.00,East,82,9.0,17.0,37,0.00,,,0.00,757.000000,,2013-04-21 15:33:00,
2013-04-21 11:43:00,50.0,25.0,-100.00,East,82,9.0,17.0,37,0.00,,,0.00,757.000000,,2013-04-21 15:43:00,
2013-04-21 11:53:00,50.0,25.0,-100.00,East,82,9.0,17.0,37,0.00,,,0.00,757.000000,,2013-04-21 15:53:00,
2013-04-21 12:03:00,50.0,25.0,-100.00,East,82,9.0,17.0,37,0.00,,,0.00,757.000000,,2013-04-21 16:03:00,
2013-04-21 12:33:00,53.0,27.0,-100.00,WSW,241,5.0,19.0,36,0.00,,,0.00,1035.000000,,2013-04-21 16:33:00,
2013-04-21 12:42:00,53.0,27.0,-100.00,WSW,241,5.0,19.0,36,0.00,,,0.00,1035.000000,,2013-04-21 16:42:00,
2013-04-21 12:53:00,53.0,27.0,-100.00,WSW,241,5.0,19.0,36,0.00,,,0.00,1035.000000,,2013-04-21 16:53:00,
2013-04-21 13:02:00,53.0,27.0,-100.00,WSW,241,5.0,19.0,36,0.00,,,0.00,1035.000000,,2013-04-21 17:02:00,
2013-04-21 13:32:00,55.0,28.0,-100.00,SSE,159,8.0,19.0,35,0.00,,,0.00,1070.000000,,2013-04-21 17:32:00,
2013-04-21 13:42:00,55.0,28.0,-100.00,SSE,159,8.0,19.0,35,0.00,,,0.00,1070.000000,,2013-04-21 17:42:00,
2013-04-21 13:52:00,55.0,28.0,-100.00,SSE,159,8.0,19.0,35,0.00,,,0.00,1070.000000,,2013-04-21 17:52:00,
2013-04-21 14:02:00,55.0,28.0,-100.00,SSE,159,8.0,19.0,35,0.00,,,0.00,1070.000000,,2013-04-21 18:02:00,
2013-04-21 14:33:00,56.0,28.0,-100.00,SE,135,6.0,17.0,34,0.00,,,0.00,1093.000000,,2013-04-21 18:33:00,
2013-04-21 14:42:00,56.0,28.0,-100.00,SE,135,6.0,17.0,34,0.00,,,0.00,1093.000000,,2013-04-21 18:42:00,
2013-04-21 14:52:00,56.0,28.0,-100.00,SE,135,6.0,17.0,34,0.00,,,0.00,1093.000000,,2013-04-21 18:52:00,
2013-04-21 15:02:00,56.0,28.0,-100.00,SE,135,6.0,17.0,34,0.00,,,0.00,1093.000000,,2013-04-21 19:02:00,
2013-04-21 15:32:00,57.0,28.0,-100.00,SE,129,6.0,14.0,33,0.00,,,0.00,1056.000000,,2013-04-21 19:32:00,
2013-04-21 15:43:00,57.0,28.0,-100.00,SE,129,6.0,14.0,33,0.00,,,0.00,1056.000000,,2013-04-21 19:43:00,
2013-04-21 15:52:00,57.0,28.0,-100.00,SE,129,6.0,14.0,33,0.00,,,0.00,1056.000000,,2013-04-21 19:52:00,
2013-04-21 16:02:00,57.0,28.0,-100.00,SE,129,6.0,14.0,33,0.00,,,0.00,1056.000000,,2013-04-21 20:02:00,
2013-04-21 16:32:00,58.0,28.0,-100.00,South,170,8.0,18.0,31,0.00,,,0.00,1057.000000,,2013-04-21 20:32:00,
2013-04-21 16:42:00,58.0,28.0,-100.00,South,170,8.0,18.0,31,0.00,,,0.00,1057.000000,,2013-04-21 20:42:00,
2013-04-21 16:52:00,58.0,28.0,-100.00,South,170,8.0,18.0,31,0.00,,,0.00,1057.000000,,2013-04-21 20:52:00,
2013-04-21 17:02:00,58.0,28.0,-100.00,South,170,8.0,18.0,31,0.00,,,0.00,1057.000000,,2013-04-21 21:02:00,
2013-04-21 17:33:00,57.0,27.0,-100.00,South,169,8.0,17.0,31,0.00,,,0.00,869.000000,,2013-04-21 21:33:00,
2013-04-21 17:43:00,57.0,27.0,-100.00,South,169,8.0,17.0,31,0.00,,,0.00,869.000000,,2013-04-21 21:43:00,
2013-04-21 17:53:00,57.0,27.0,-100.00,South,169,8.0,17.0,31,0.00,,,0.00,869.000000,,2013-04-21 21:53:00,
2013-04-21 18:03:00,57.0,27.0,-100.00,South,169,8.0,17.0,31,0.00,,,0.00,869.000000,,2013-04-21 22:03:00,
2013-04-21 18:33:00,55.0,27.0,-100.00,SE,142,8.0,17.0,34,0.00,,,0.00,637.000000,,2013-04-21 22:33:00,
2013-04-21 18:43:00,55.0,27.0,-100.00,SE,142,8.0,17.0,34,0.00,,,0.00,637.000000,,2013-04-21 22:43:00,
2013-04-21 18:53:00,55.0,27.0,-100.00,SE,142,8.0,17.0,34,0.00,,,0.00,637.000000,,2013-04-21 22:53:00,
2013-04-21 19:02:00,55.0,27.0,-100.00,SE,142,8.0,17.0,34,0.00,,,0.00,637.000000,,2013-04-21 23:02:00,
2013-04-21 19:32:00,54.0,29.0,-100.00,SE,146,5.0,17.0,38,0.00,,,0.00,359.000000,,2013-04-21 23:32:00,
2013-04-21 19:43:00,54.0,29.0,-100.00,SE,146,5.0,17.0,38,0.00,,,0.00,359.000000,,2013-04-21 23:43:00,
2013-04-21 19:52:00,54.0,29.0,-100.00,SE,146,5.0,17.0,38,0.00,,,0.00,359.000000,,2013-04-21 23:52:00,
2013-04-21 20:01:00,54.0,29.0,-100.00,SE,146,5.0,17.0,38,0.00,,,0.00,359.000000,,2013-04-22 00:01:00,
2013-04-21 20:32:00,50.0,29.0,-100.00,SE,143,6.0,16.0,44,0.00,,,-99.99,88.000000,,2013-04-22 00:32:00,
2013-04-21 20:42:00,50.0,29.0,-100.00,SE,143,6.0,16.0,44,0.00,,,-99.99,88.000000,,2013-04-22 00:42:00,
2013-04-21 20:52:00,50.0,29.0,-100.00,SE,143,6.0,16.0,44,0.00,,,-99.99,88.000000,,2013-04-22 00:52:00,
2013-04-21 21:01:00,50.0,29.0,-100.00,SE,143,6.0,16.0,44,0.00,,,-99.99,88.000000,,2013-04-22 01:01:00,
2013-04-21 21:32:00,49.0,32.0,-100.00,SE,133,5.0,14.0,52,0.00,,,0.00,1.000000,,2013-04-22 01:32:00,
2013-04-21 21:42:00,49.0,32.0,-100.00,SE,133,5.0,14.0,52,0.00,,,0.00,1.000000,,2013-04-22 01:42:00,
2013-04-21 21:52:00,49.0,32.0,-100.00,SE,133,5.0,14.0,52,0.00,,,0.00,1.000000,,2013-04-22 01:52:00,
2013-04-21 22:02:00,49.0,32.0,-100.00,SE,133,5.0,14.0,52,0.00,,,0.00,1.000000,,2013-04-22 02:02:00,
2013-04-21 22:32:00,47.0,32.0,-100.00,NW,309,4.0,16.0,56,0.00,,,0.00,0.000000,,2013-04-22 02:32:00,
2013-04-21 22:42:00,47.0,32.0,-100.00,NW,309,4.0,16.0,56,0.00,,,0.00,0.000000,,2013-04-22 02:42:00,
2013-04-21 22:52:00,47.0,32.0,-100.00,NW,309,4.0,16.0,56,0.00,,,0.00,0.000000,,2013-04-22 02:52:00,
2013-04-21 23:02:00,47.0,32.0,-100.00,NW,309,4.0,16.0,56,0.00,,,0.00,0.000000,,2013-04-22 03:02:00,
2013-04-21 23:33:00,46.0,33.0,-100.00,East,97,8.0,18.0,60,0.00,,,0.00,0.000000,,2013-04-22 03:33:00,
2013-04-21 23:43:00,46.0,33.0,-100.00,East,97,8.0,18.0,60,0.00,,,0.00,0.000000,,2013-04-22 03:43:00,
2013-04-21 23:53:00,46.0,33.0,-100.00,East,97,8.0,18.0,60,0.00,,,0.00,0.000000,,2013-04-22 03:53:00,